This is the latest recevied weather packets stored in our database for station/object KD4UFD. If no packets are shown the sender has not sent any weather packets the latest 10 day(s).
| Time | Temp. | Humidity | Pressure | Rain* | Wind** | Luminosity | Snow |
|---|---|---|---|---|---|---|---|
| 1777835688 | 17.78° C | 42% | 1019 hPa | 0 mm | - | 668 W/m² | - |
| 1777835384 | 17.78° C | 43% | 1018.9 hPa | 0 mm | - | 621 W/m² | - |
| 1777835082 | 17.22° C | 47% | 1018.8 hPa | 0 mm | - | 666 W/m² | - |
| 1777834779 | 17.22° C | 45% | 1018.9 hPa | 0 mm | - | 714 W/m² | - |
| 1777834475 | 16.67° C | 51% | 1018.9 hPa | 0 mm | - | 701 W/m² | - |
| 1777834174 | 16.67° C | 42% | 1019.1 hPa | 0 mm | - | 720 W/m² | - |
| 1777833871 | 17.22° C | 43% | 1019.3 hPa | 0 mm | - | 733 W/m² | - |
| 1777833568 | 17.22° C | 44% | 1019.2 hPa | 0 mm | - | 710 W/m² | - |
| 1777833264 | 16.67° C | 43% | 1019.2 hPa | 0 mm | - | 723 W/m² | - |
| 1777832961 | 17.22° C | 43% | 1019.2 hPa | 0 mm | - | 737 W/m² | - |
| 1777832660 | 17.22° C | 50% | 1019.6 hPa | 0 mm | - | 703 W/m² | - |
| 1777832357 | 17.22° C | 39% | 1019.5 hPa | 0 mm | - | 687 W/m² | - |
| 1777832054 | 16.67° C | 45% | 1019.6 hPa | 0 mm | - | 691 W/m² | - |
| 1777831750 | 16.11° C | 41% | 1019.4 hPa | 0 mm | - | 718 W/m² | - |
| 1777831449 | 16.11° C | 44% | 1019.7 hPa | 0 mm | - | 750 W/m² | - |
| 1777831144 | 16.67° C | 47% | 1019.6 hPa | 0 mm | - | 750 W/m² | - |
| 1777830843 | 16.67° C | 43% | 1019.6 hPa | 0 mm | - | 748 W/m² | - |
| 1777830538 | 15.56° C | 48% | 1020 hPa | 0 mm | - | 737 W/m² | - |
| 1777830236 | 15.56° C | 50% | 1019.9 hPa | 0 mm | - | 736 W/m² | - |
| 1777829931 | 15.56° C | 43% | 1019.8 hPa | 0 mm | - | 741 W/m² | - |
| 1777829628 | 16.11° C | 47% | 1019.9 hPa | 0 mm | - | 750 W/m² | - |
| 1777829324 | 15.56° C | 44% | 1020.3 hPa | 0 mm | - | 739 W/m² | - |
| 1777829022 | 16.11° C | 42% | 1020.2 hPa | 0 mm | - | 721 W/m² | - |
| 1777828718 | 15.56° C | 44% | 1020.2 hPa | 0 mm | - | 727 W/m² | - |
| 1777828415 | 16.11° C | 44% | 1020.3 hPa | 0 mm | - | 726 W/m² | - |
* Rain latest hour (hover to see other rain measurements)
** Current wind speed in m/s (hover to see current wind gust speed)